| time (UTC) | temp F | wind direction | speed knots | gust knots | rain 1hr in | rain 24hr in | rain mn in | humidity % | barometer mb |
| 20260505083705 | 57 | 43 | 8.7 | 25.2 | 0.00 | 0.00 | 0.00 | 71 | 1005.6 |
| 20260505083205 | 57 | 59 | 13.0 | 25.2 | 0.00 | 0.00 | 0.00 | 69 | 1005.5 |
| 20260505082705 | 57 | 37 | 11.3 | 21.7 | 0.00 | 0.00 | 0.00 | 71 | 1005.3 |
| 20260505082205 | 58 | 32 | 10.4 | 20.9 | 0.00 | 0.00 | 0.00 | 73 | 1005.2 |
| 20260505081705 | 58 | 28 | 7.8 | 22.6 | 0.00 | 0.00 | 0.00 | 75 | 1005.1 |
| 20260505080705 | 59 | 45 | 9.6 | 21.7 | 0.00 | 0.00 | 0.00 | 76 | 1004.8 |
| 20260505075706 | 59 | 28 | 10.4 | 20.9 | 0.00 | 0.00 | 0.00 | 76 | 1004.7 |
| 20260505074705 | 60 | 38 | 9.6 | 22.6 | 0.00 | 0.00 | 0.00 | 76 | 1004.7 |
| 20260505074206 | 60 | 36 | 7.8 | 22.6 | 0.00 | 0.00 | 0.00 | 76 | 1004.8 |
| 20260505073706 | 60 | 69 | 7.0 | 19.1 | 0.00 | 0.00 | 0.00 | 76 | 1004.7 |
| 20260505073205 | 60 | 36 | 7.8 | 17.4 | 0.00 | 0.00 | 0.00 | 76 | 1004.7 |
| 20260505072705 | 60 | 31 | 7.8 | 17.4 | 0.00 | 0.00 | 0.00 | 77 | 1004.6 |
| 20260505071205 | 60 | 43 | 7.8 | 15.6 | 0.00 | 0.00 | 0.00 | 78 | 1004.5 |
| 20260505070705 | 60 | 45 | 7.8 | 15.6 | 0.00 | 0.00 | 0.00 | 78 | 1004.4 |
| 20260505070205 | 61 | 38 | 6.1 | 15.6 | 0.00 | 0.00 | 0.00 | 77 | 1004.3 |
| 20260505065705 | 62 | 45 | 6.1 | 12.2 | 0.00 | 0.00 | 0.00 | 73 | 1004.4 |
| 20260505065205 | 63 | 15 | 6.1 | 12.2 | 0.00 | 0.00 | 0.00 | 70 | 1004.4 |
| 20260505064205 | 65 | 18 | 5.2 | 13.0 | 0.00 | 0.00 | 0.00 | 68 | 1004.2 |
| 20260505063705 | 65 | 40 | 5.2 | 13.0 | 0.00 | 0.00 | 0.00 | 69 | 1004.1 |
| 20260505063205 | 65 | 70 | 6.1 | 13.0 | 0.00 | 0.00 | 0.00 | 66 | 1004.0 |
| 20260505062205 | 66 | 68 | 7.0 | 21.7 | 0.00 | 0.00 | 0.00 | 66 | 1004.2 |
| 20260505060706 | 69 | 117 | 0.9 | 7.8 | 0.00 | 0.00 | 0.00 | 76 | 1004.1 |
| 20260505060205 | 69 | 117 | 0.9 | 10.4 | 0.00 | 0.00 | 0.00 | 75 | 1003.8 |
| 20260505055706 | 70 | 116 | 5.2 | 10.4 | 0.00 | 0.00 | 0.00 | 73 | 1003.6 |
| 20260505055205 | 71 | 78 | 5.2 | 10.4 | 0.00 | 0.00 | 0.00 | 70 | 1003.4 |
| 20260505054705 | 71 | 104 | 2.6 | 12.2 | 0.00 | 0.00 | 0.00 | 69 | 1003.3 |
| 20260505054206 | 71 | 95 | 6.1 | 12.2 | 0.00 | 0.00 | 0.00 | 69 | 1003.2 |
| 20260505053706 | 71 | 124 | 2.6 | 7.8 | 0.00 | 0.00 | 0.00 | 70 | 1003.3 |
| 20260505053205 | 70 | 137 | 2.6 | 7.0 | 0.00 | 0.00 | 0.00 | 71 | 1003.1 |
| 20260505052705 | 70 | 141 | 2.6 | 7.0 | 0.00 | 0.00 | 0.00 | 71 | 1003.2 |
| 20260505052204 | 70 | 142 | 3.5 | 7.0 | 0.00 | 0.00 | 0.00 | 71 | 1003.2 |
| 20260505051705 | 70 | 124 | 2.6 | 7.8 | 0.00 | 0.00 | 0.00 | 71 | 1003.1 |
| 20260505050704 | 71 | 43 | 5.2 | 10.4 | 0.00 | 0.00 | 0.00 | 70 | 1003.2 |
| 20260505050205 | 70 | 103 | 5.2 | 10.4 | 0.00 | 0.00 | 0.00 | 70 | 1003.3 |
| 20260505041705 | 70 | 118 | 0.9 | 8.7 | 0.00 | 0.00 | 0.00 | 69 | 1002.7 |
| 20260505041205 | 71 | 131 | 4.3 | 8.7 | 0.00 | 0.00 | 0.00 | 69 | 1002.7 |
| 20260505040705 | 71 | 163 | 2.6 | 8.7 | 0.00 | 0.00 | 0.00 | 68 | 1002.6 |
| 20260505040205 | 71 | 152 | 5.2 | 8.7 | 0.00 | 0.00 | 0.00 | 68 | 1002.5 |
| 20260505035705 | 71 | 150 | 3.5 | 7.8 | 0.00 | 0.00 | 0.00 | 67 | 1002.7 |
| 20260505034205 | 71 | 114 | 4.3 | 8.7 | 0.00 | 0.00 | 0.00 | 65 | 1002.8 |
| 20260505033705 | 71 | 110 | 4.3 | 8.7 | 0.00 | 0.00 | 0.00 | 65 | 1002.7 |
| 20260505033208 | 72 | 81 | 5.2 | 10.4 | 0.00 | 0.00 | 0.00 | 64 | 1002.5 |
| 20260505032719 | 72 | 140 | 5.2 | 13.0 | 0.00 | 0.00 | 0.00 | 64 | 1002.4 |
| 20260505032218 | 72 | 136 | 5.2 | 13.0 | 0.00 | 0.00 | 0.00 | 63 | 1002.4 |
| 20260505030704 | 73 | 113 | 5.2 | 12.2 | 0.00 | 0.00 | 0.00 | 60 | 1002.6 |
| 20260505030205 | 73 | 136 | 5.2 | 10.4 | 0.00 | 0.00 | 0.00 | 60 | 1002.5 |
| 20260505025205 | 73 | 142 | 5.2 | 13.9 | 0.00 | 0.00 | 0.00 | 59 | 1002.3 |
| 20260505023705 | 74 | 148 | 9.6 | 19.1 | 0.00 | 0.00 | 0.00 | 59 | 1002.3 |
| 20260505022722 | 74 | 146 | 13.9 | 19.1 | 0.00 | 0.00 | 0.00 | 58 | 1002.4 |
| 20260505022206 | 74 | 154 | 12.2 | 20.0 | 0.00 | 0.00 | 0.00 | 58 | 1002.2 |
| 20260505021705 | 74 | 147 | 11.3 | 20.0 | 0.00 | 0.00 | 0.00 | 58 | 1002.3 |
| 20260505021206 | 74 | 150 | 10.4 | 15.6 | 0.00 | 0.00 | 0.00 | 57 | 1002.4 |
| 20260505020705 | 74 | 162 | 5.2 | 13.0 | 0.00 | 0.00 | 0.00 | 57 | 1002.9 |
| 20260505015705 | 74 | 150 | 6.1 | 12.2 | 0.00 | 0.00 | 0.00 | 55 | 1003.1 |
| 20260505015214 | 74 | 158 | 6.1 | 12.2 | 0.00 | 0.00 | 0.00 | 54 | 1003.3 |
| 20260505014705 | 74 | 158 | 5.2 | 13.0 | 0.00 | 0.00 | 0.00 | 53 | 1003.3 |
| 20260505014205 | 75 | 146 | 6.1 | 13.0 | 0.00 | 0.00 | 0.00 | 53 | 1003.0 |
| 20260505013705 | 75 | 157 | 5.2 | 12.2 | 0.00 | 0.00 | 0.00 | 52 | 1002.8 |
| 20260505013205 | 75 | 154 | 7.0 | 13.0 | 0.00 | 0.00 | 0.00 | 51 | 1002.5 |
| 20260505011705 | 75 | 155 | 7.8 | 14.8 | 0.00 | 0.00 | 0.00 | 50 | 1002.2 |
| 20260505011205 | 76 | 154 | 8.7 | 13.9 | 0.00 | 0.00 | 0.00 | 50 | 1002.1 |
| 20260505010705 | 76 | 152 | 6.1 | 13.9 | 0.00 | 0.00 | 0.00 | 49 | 1002.0 |
| 20260505010205 | 76 | 150 | 7.8 | 15.6 | 0.00 | 0.00 | 0.00 | 49 | 1002.1 |
| 20260505005705 | 76 | 155 | 9.6 | 15.6 | 0.00 | 0.00 | 0.00 | 48 | 1002.0 |
| 20260505005206 | 76 | 156 | 8.7 | 14.8 | 0.00 | 0.00 | 0.00 | 47 | 1001.9 |
| 20260505004205 | 77 | 152 | 8.7 | 17.4 | 0.00 | 0.00 | 0.00 | 46 | 1001.9 |
| 20260505003705 | 77 | 154 | 11.3 | 17.4 | 0.00 | 0.00 | 0.00 | 46 | 1002.0 |
| 20260505003205 | 77 | 141 | 9.6 | 13.9 | 0.00 | 0.00 | 0.00 | 45 | 1001.9 |
| 20260505002205 | 78 | 152 | 8.7 | 13.9 | 0.00 | 0.00 | 0.00 | 44 | 1002.1 |
| 20260505001705 | 78 | 157 | 7.8 | 13.9 | 0.00 | 0.00 | 0.00 | 44 | 1002.1 |
| 20260505000722 | 78 | 145 | 7.8 | 15.6 | 0.00 | 0.00 | 0.00 | 43 | 1002.2 |
| 20260505000205 | 79 | 149 | 10.4 | 17.4 | 0.00 | 0.00 | 0.00 | 43 | 1002.1 |
| 20260504235705 | 79 | 158 | 8.7 | 17.4 | 0.00 | 0.00 | 0.00 | 43 | 1002.2 |
| 20260504235205 | 79 | 145 | 7.8 | 14.8 | 0.00 | 0.00 | 0.00 | 42 | 1002.2 |
| 20260504234705 | 79 | 143 | 9.6 | 14.8 | 0.00 | 0.00 | 0.00 | 42 | 1002.2 |
| 20260504234205 | 79 | 150 | 8.7 | 15.6 | 0.00 | 0.00 | 0.00 | 42 | 1002.2 |
| 20260504233705 | 79 | 155 | 7.0 | 15.6 | 0.00 | 0.00 | 0.00 | 42 | 1002.3 |
| 20260504233206 | 80 | 151 | 9.6 | 15.6 | 0.00 | 0.00 | 0.00 | 42 | 1002.4 |
| 20260504231706 | 80 | 148 | 7.8 | 20.0 | 0.00 | 0.00 | 0.00 | 41 | 1002.3 |
| 20260504231206 | 80 | 145 | 11.3 | 20.0 | 0.00 | 0.00 | 0.00 | 41 | 1002.3 |
| 20260504230705 | 81 | 145 | 11.3 | 17.4 | 0.00 | 0.00 | 0.00 | 40 | 1002.2 |
| 20260504230205 | 81 | 154 | 7.0 | 21.7 | 0.00 | 0.00 | 0.00 | 41 | 1002.1 |
| 20260504225704 | 81 | 152 | 8.7 | 21.7 | 0.00 | 0.00 | 0.00 | 40 | 1002.1 |
| 20260504225205 | 81 | 146 | 11.3 | 20.9 | 0.00 | 0.00 | 0.00 | 40 | 1002.2 |
| 20260504224204 | 82 | 140 | 9.6 | 15.6 | 0.00 | 0.00 | 0.00 | 39 | 1002.1 |
| 20260504223704 | 82 | 152 | 8.7 | 15.6 | 0.00 | 0.00 | 0.00 | 39 | 1002.1 |
| 20260504222705 | 83 | 151 | 11.3 | 17.4 | 0.00 | 0.00 | 0.00 | 39 | 1002.1 |
| 20260504222205 | 83 | 144 | 11.3 | 17.4 | 0.00 | 0.00 | 0.00 | 39 | 1002.1 |
| 20260504221705 | 83 | 144 | 10.4 | 17.4 | 0.00 | 0.00 | 0.00 | 38 | 1002.0 |
| 20260504221205 | 83 | 138 | 8.7 | 17.4 | 0.00 | 0.00 | 0.00 | 38 | 1002.1 |
| 20260504220705 | 83 | 152 | 10.4 | 17.4 | 0.00 | 0.00 | 0.00 | 38 | 1002.1 |
| 20260504220204 | 84 | 173 | 7.8 | 17.4 | 0.00 | 0.00 | 0.00 | 37 | 1002.1 |
| 20260504215705 | 84 | 131 | 9.6 | 19.1 | 0.00 | 0.00 | 0.00 | 36 | 1002.2 |
| 20260504215207 | 84 | 164 | 8.7 | 19.1 | 0.00 | 0.00 | 0.00 | 35 | 1002.2 |
| 20260504214705 | 83 | 167 | 10.4 | 17.4 | 0.00 | 0.00 | 0.00 | 36 | 1002.2 |
| 20260504214205 | 83 | 146 | 8.7 | 20.0 | 0.00 | 0.00 | 0.00 | 36 | 1002.3 |
| 20260504213705 | 84 | 161 | 7.8 | 20.0 | 0.00 | 0.00 | 0.00 | 36 | 1002.4 |
| 20260504213205 | 85 | 137 | 6.1 | 15.6 | 0.00 | 0.00 | 0.00 | 35 | 1002.4 |
| 20260504212704 | 84 | 161 | 7.8 | 14.8 | 0.00 | 0.00 | 0.00 | 34 | 1002.6 |
| 20260504211705 | 85 | 157 | 5.2 | 15.6 | 0.00 | 0.00 | 0.00 | 32 | 1002.5 |
| 20260504211205 | 85 | 202 | 7.8 | 15.6 | 0.00 | 0.00 | 0.00 | 32 | 1002.5 |
| 20260504210706 | 85 | 156 | 9.6 | 17.4 | 0.00 | 0.00 | 0.00 | 30 | 1002.6 |
| 20260504205705 | 85 | 145 | 10.4 | 20.9 | 0.00 | 0.00 | 0.00 | 30 | 1002.7 |
| 20260504205205 | 86 | 232 | 11.3 | 19.1 | 0.00 | 0.00 | 0.00 | 28 | 1002.8 |
| 20260504204205 | 86 | 144 | 6.1 | 15.6 | 0.00 | 0.00 | 0.00 | 29 | 1003.0 |
| 20260504203204 | 85 | 154 | 7.8 | 14.8 | 0.00 | 0.00 | 0.00 | 30 | 1003.1 |
| 20260504202705 | 85 | 165 | 7.8 | 14.8 | 0.00 | 0.00 | 0.00 | 29 | 1003.1 |
| 20260504202205 | 85 | 149 | 4.3 | 14.8 | 0.00 | 0.00 | 0.00 | 33 | 1003.2 |
| 20260504201706 | 85 | 153 | 0.9 | 13.0 | 0.00 | 0.00 | 0.00 | 36 | 1003.2 |
| 20260504201206 | 85 | 156 | 2.6 | 13.0 | 0.00 | 0.00 | 0.00 | 33 | 1003.4 |
| 20260504200705 | 85 | 167 | 7.8 | 13.0 | 0.00 | 0.00 | 0.00 | 30 | 1003.5 |
| 20260504200205 | 86 | 144 | 4.3 | 10.4 | 0.00 | 0.00 | 0.00 | 33 | 1003.6 |
| 20260504195705 | 85 | 236 | 2.6 | 7.0 | 0.00 | 0.00 | 0.00 | 39 | 1003.6 |
| 20260504195205 | 85 | 237 | 2.6 | 10.4 | 0.00 | 0.00 | 0.00 | 36 | 1003.7 |
| 20260504194705 | 85 | 130 | 4.3 | 10.4 | 0.00 | 0.00 | 0.00 | 32 | 1003.8 |
| 20260504194205 | 85 | 171 | 5.2 | 10.4 | 0.00 | 0.00 | 0.00 | 32 | 1003.8 |
| 20260504193705 | 85 | 203 | 4.3 | 10.4 | 0.00 | 0.00 | 0.00 | 33 | 1004.0 |
| 20260504193205 | 85 | 75 | 1.7 | 12.2 | 0.00 | 0.00 | 0.00 | 36 | 1003.9 |
| 20260504192205 | 83 | 111 | 2.6 | 12.2 | 0.00 | 0.00 | 0.00 | 38 | 1004.0 |
| 20260504191705 | 83 | 149 | 5.2 | 10.4 | 0.00 | 0.00 | 0.00 | 35 | 1004.2 |
| 20260504191205 | 83 | 149 | 2.6 | 14.8 | 0.00 | 0.00 | 0.00 | 35 | 1004.3 |
| 20260504190705 | 84 | 224 | 6.1 | 14.8 | 0.00 | 0.00 | 0.00 | 36 | 1004.3 |
| 20260504190205 | 83 | 104 | 0.9 | 7.0 | 0.00 | 0.00 | 0.00 | 38 | 1004.4 |
| 20260504185704 | 82 | 109 | 1.7 | 7.0 | 0.00 | 0.00 | 0.00 | 37 | 1004.4 |
| 20260504185206 | 82 | 111 | 2.6 | 7.0 | 0.00 | 0.00 | 0.00 | 37 | 1004.4 |
| 20260504184205 | 81 | 149 | 3.5 | 7.0 | 0.00 | 0.00 | 0.00 | 37 | 1004.5 |
| 20260504183705 | 81 | 191 | 4.3 | 6.1 | 0.00 | 0.00 | 0.00 | 40 | 1004.5 |
| 20260504183206 | 80 | 185 | 2.6 | 12.2 | 0.00 | 0.00 | 0.00 | 40 | 1004.6 |
| 20260504182705 | 80 | 199 | 2.6 | 12.2 | 0.00 | 0.00 | 0.00 | 38 | 1004.7 |
| 20260504181706 | 80 | 157 | 4.3 | 12.2 | 0.00 | 0.00 | 0.00 | 39 | 1004.8 |
| 20260504181205 | 80 | 174 | 1.7 | 8.7 | 0.00 | 0.00 | 0.00 | 39 | 1004.9 |
| 20260504180705 | 80 | 234 | 2.6 | 13.0 | 0.00 | 0.00 | 0.00 | 40 | 1005.0 |
| 20260504175706 | 81 | 214 | 5.2 | 12.2 | 0.00 | 0.00 | 0.00 | 38 | 1005.1 |
| 20260504175204 | 80 | 179 | 1.7 | 13.0 | 0.00 | 0.00 | 0.00 | 44 | 1005.1 |
| 20260504174705 | 79 | 159 | 5.2 | 13.0 | 0.00 | 0.00 | 0.00 | 40 | 1005.3 |
| 20260504174206 | 79 | 254 | 5.2 | 13.0 | 0.00 | 0.00 | 0.00 | 42 | 1005.4 |
| 20260504173705 | 79 | 225 | 4.3 | 13.9 | 0.00 | 0.00 | 0.00 | 40 | 1005.3 |
| 20260504173205 | 79 | 249 | 7.8 | 13.9 | 0.00 | 0.00 | 0.00 | 39 | 1005.4 |
| 20260504172704 | 79 | 224 | 5.2 | 13.0 | 0.00 | 0.00 | 0.00 | 41 | 1005.3 |
| 20260504172205 | 80 | 283 | 5.2 | 13.0 | 0.00 | 0.00 | 0.00 | 41 | 1005.3 |
| 20260504171205 | 77 | 233 | 5.2 | 13.9 | 0.00 | 0.00 | 0.00 | 45 | 1005.4 |
| 20260504170705 | 76 | 226 | 4.3 | 13.9 | 0.00 | 0.00 | 0.00 | 42 | 1005.3 |
| 20260504170205 | 77 | 206 | 7.8 | 13.9 | 0.00 | 0.00 | 0.00 | 41 | 1005.3 |
| 20260504160205 | 72 | 198 | 10.4 | 17.4 | 0.00 | 0.00 | 0.00 | 47 | 1005.1 |
| 20260504150705 | 69 | 214 | 11.3 | 17.4 | 0.00 | 0.00 | 0.00 | 50 | 1005.5 |
| 20260504150205 | 69 | 213 | 6.1 | 19.1 | 0.00 | 0.00 | 0.00 | 52 | 1005.4 |
| 20260504140705 | 65 | 212 | 7.0 | 19.1 | 0.00 | 0.00 | 0.00 | 53 | 1005.5 |
| 20260504140205 | 65 | 220 | 12.2 | 22.6 | 0.00 | 0.00 | 0.00 | 53 | 1005.7 |
| 20260504130705 | 62 | 226 | 8.7 | 17.4 | 0.00 | 0.00 | 0.00 | 58 | 1005.6 |
| 20260504130205 | 61 | 209 | 7.0 | 13.9 | 0.00 | 0.00 | 0.00 | 59 | 1005.5 |
| 20260504120205 | 59 | 178 | 5.2 | 12.2 | 0.00 | 0.00 | 0.00 | 60 | 1005.4 |
| 20260504110705 | 60 | 204 | 6.1 | 14.8 | 0.00 | 0.00 | 0.00 | 55 | 1005.6 |
| 20260504110205 | 60 | 203 | 4.3 | 13.9 | 0.00 | 0.00 | 0.00 | 55 | 1005.7 |
| 20260504100205 | 62 | 212 | 5.2 | 15.6 | 0.00 | 0.00 | 0.00 | 52 | 1006.2 |